Showing default

KUIPER-00073, 64820

Orbit data source: Space-Track

KUIPER-00073, 64820 is a payload satellite owned by Kuiper Systems (US) in LEO that was launched on Wed, 16 Jul 2025 UTC via an FALCON 9 launch vehicle from the Air Force Eastern Test Range (AFETR). Payload-class satellites include a variety of spacecraft equipped with specific instruments for various scientific and technological missions. These include communications satellites like Starlink; space stations such as the ISS; scientific satellites like the Hubble; Earth observation satellites from companies like Planet Labs, Umbra, and HawkEye 360; GPS; miniature CubeSats for education and research; and military/defense satellites.

Loading next visibility...
Identifier
64820, 2025-151E
Orbit
LEO
Country
Flag of USUS
Related business
Manufacturer
Kuiper Systems
Mission
Operational Commercial Communications
Bus & Motor
KUIPER, Unknown motor
Mass
~490 kg wet, ~490 kg dry
Launch date (UTC)
2025-07-16 (11 months ago)
Launch vehicle
FALCON 9
Launch site
Air Force Eastern Test Range (AFETR)
Object type
Payload
Rocket body
Debris
Shape & HBR
Box + 2 Pan, 3.4 m
Radar Cross Section
2.326 m², Large (>1 m²)

Expand to show TLE details & history
Last TLE update: 7 hours ago

TLE from 7 hours ago
0 KUIPER-00073
1 64820U 25151E   26166.87822365  .00000933  00000-0  15133-3 0  9997
2 64820  51.8999 228.8886 0000263  45.5079 314.5904 14.79934609 50997
Epoch: 2026-06-15T21:04Z
TLE epoch observation values (Epoch: 2026-06-15T21:04:38.523Z)
Latitude
-0.00008°
Longitude
8.56973°
Altitude
630.148 km
Speed
7.545 km/s
True Right ascension
15h 15m 33s
True Declination
0° 00' 00"
Sunlit
Object was in full shadow at epoch
Visualization orbit readout
Latitude
Unknown
Longitude
Unknown
Altitude
Unknown
Speed
Unknown
Apparent Right ascension
Unknown
Apparent Declination
Unknown
Sunlit
N/A
Visualization observer readout
Local Sidereal Time
14:43:18
Azimuth
Unknown
Elevation
Unknown
Doppler factor
Unknown
Orbital elements
Apogee altitude
630.166 km
Perigee altitude
629.797 km
Semi-major axis
7,008.119 km
Eccentricity
0.00003
Inclination
51.8999°
RAAN
228.8886°
Arg. of periapsis
45.5079°
True anomaly
314.58825°
Mean anomaly
314.5904°
Eccentric anomaly
314.58933°
Mean motion
3.69948 °/min
Orbital period
97.31 mins
BSTAR
0.00015133
Loading maneuver chart data...
Computing Atmospheric mass density...
Loading historical data...
Loading historical data...
Loading historical data...
Loading historical data...
Loading historical data...
Loading historical data...
Loading historical data...

Documentation

Showing up to 5 results
|